This is the latest recevied weather packets stored in our database for station/object KC3ULW-13. If no packets are shown the sender has not sent any weather packets the latest 10 day(s).
| Time | Temp. | Humidity | Pressure | Rain* | Wind** | Luminosity | Snow |
|---|---|---|---|---|---|---|---|
| 1777905655 | 18.33° C | 47% | 1013.1 hPa | 0 mm | - | 652 W/m² | - |
| 1777905352 | 18.33° C | 47% | 1013.1 hPa | 0 mm | - | 627 W/m² | - |
| 1777905050 | 18.33° C | 47% | 1013.1 hPa | 0 mm | - | 641 W/m² | - |
| 1777904747 | 17.22° C | 48% | 1013.1 hPa | 0 mm | - | 636 W/m² | - |
| 1777904444 | 17.78° C | 47% | 1012.8 hPa | 0 mm | - | 614 W/m² | - |
| 1777904141 | 17.78° C | 48% | 1013.1 hPa | 0 mm | - | 619 W/m² | - |
| 1777903838 | 17.22° C | 48% | 1013.3 hPa | 0 mm | - | 592 W/m² | - |
| 1777903534 | 16.67° C | 48% | 1013 hPa | 0 mm | - | 567 W/m² | - |
| 1777903231 | 16.67° C | 48% | 1013.1 hPa | 0 mm | - | 556 W/m² | - |
| 1777902927 | 16.67° C | 48% | 1013.2 hPa | 0 mm | - | 537 W/m² | - |
| 1777902624 | 16.67° C | 49% | 1013.5 hPa | 0 mm | - | 514 W/m² | - |
| 1777902321 | 16.67° C | 48% | 1013.3 hPa | 0 mm | - | 496 W/m² | - |
| 1777902018 | 16.11° C | 48% | 1013.4 hPa | 0 mm | - | 451 W/m² | - |
| 1777901716 | 16.11° C | 48% | 1013.6 hPa | 0 mm | - | 446 W/m² | - |
| 1777901414 | 16.11° C | 47% | 1013.3 hPa | 0 mm | - | 396 W/m² | - |
| 1777901111 | 15.56° C | 49% | 1013.5 hPa | 0 mm | - | 367 W/m² | - |
| 1777900809 | 15.56° C | 49% | 1013.7 hPa | 0 mm | - | 337 W/m² | - |
| 1777900506 | 15.56° C | 49% | 1013.5 hPa | 0 mm | - | 332 W/m² | - |
| 1777900203 | 15.56° C | 50% | 1013.7 hPa | 0 mm | - | 347 W/m² | - |
| 1777899899 | 15° C | 50% | 1013.5 hPa | 0 mm | - | 292 W/m² | - |
| 1777899595 | 15° C | 51% | 1013.6 hPa | 0 mm | - | 293 W/m² | - |
| 1777899293 | 14.44° C | 52% | 1013.7 hPa | 0 mm | - | 225 W/m² | - |
| 1777898990 | 13.89° C | 54% | 1013.8 hPa | 0 mm | - | 212 W/m² | - |
| 1777898687 | 13.89° C | 53% | 1013.7 hPa | 0 mm | - | 62 W/m² | - |
| 1777898384 | 13.33° C | 54% | 1013.4 hPa | 0 mm | - | 59 W/m² | - |
* Rain latest hour (hover to see other rain measurements)
** Current wind speed in m/s (hover to see current wind gust speed)